Location: Newark
(7.0858°N, 171.3717°E)
Time: 07:06:41
(UTC+00:00)

Courier 1B - Pass Details

Date: 02 December 2020
Orbit: 962 x 1209 km, 28.3° (Epoch: 20 January)

Event Time Altitude Azimuth Distance (km) Brightness Sun altitude
Rises 16:47:09 0° 293° (WNW) 3,977 - -25.1°
Reaches altitude 10° 16:49:55 10° 290° (WNW) 3,048 - -24.5°
Exits shadow 16:54:39 40° 272° (W) 1,663 8.2 -23.4°
Maximum altitude 16:57:25 62° 211° (SSW) 1,319 8.0 -22.7°
Drops below altitude 10° 17:05:11 10° 131° (SE) 3,141 11.2 -20.9°
Sets 17:08:05 0° 128° (SE) 4,105 12.1 -20.3°
